Location: 相模原市立博物館
(35.5593°N, 139.3931°E)
Time: 23:30:26
(UTC+09:00)

ISS - Visible Passes

Search period start: 20 July 2019 00:00
Search period end: 30 July 2019 00:00
Orbit: 409 x 418 km, 51.6° (Epoch: 20 July)

Date Brightness Start Highest point End Pass type
(mag) Time Alt. Az. Time Alt. Az. Time Alt. Az.
20 Jul -2.7 02:25:12 10° NW 02:28:24 44° NE 02:31:34 10° ESE visible
20 Jul -2.0 04:02:55 10° W 04:04:46 14° SW 04:06:37 10° SSW visible
20 Jul -0.5 20:43:16 10° WNW 20:45:09 14° NNW 20:47:02 10° N visible
21 Jul -0.9 19:53:01 10° W 19:55:38 21° NNW 19:58:16 10° NNE visible
23 Jul -0.4 19:53:02 10° NW 19:54:02 11° NNW 19:55:01 10° N visible
28 Jul -0.3 22:14:50 10° NNW 22:15:11 12° NNW 22:15:11 12° NNW visible
29 Jul -0.9 21:25:59 10° N 21:27:22 13° NNE 21:27:22 13° NNE visible
